"Period start","avg(HW err(1)/warn(2) (#))","avg(Visibility (m))","avg(Weather code (#))","avg(Precip intensity (mm/h))","min(HW err(1)/warn(2) (#))","max(HW err(1)/warn(2) (#))","std(HW err(1)/warn(2) (#))","med(HW err(1)/warn(2) (#))","min(Visibility (m))","max(Visibility (m))","std(Visibility (m))","med(Visibility (m))","min(Weather code (#))","max(Weather code (#))","std(Weather code (#))","med(Weather code (#))","min(Precip intensity (mm/h))","max(Precip intensity (mm/h))","std(Precip intensity (mm/h))","med(Precip intensity (mm/h))"
2017-06-25 00:40:00,0,38734,0,0.00,0,0,0,0,21451,50000,8674,38644,0,0,0,0,0.00,0.00,0.00,0.00
2017-06-25 00:50:00,0,44416,0,0.00,0,0,0,0,27324,50000,7799,49641,0,0,0,0,0.00,0.00,0.00,0.00
2017-06-25 01:00:00,0,33692,0,0.00,0,0,0,0,24586,44567,6486,32866,0,0,0,0,0.00,0.00,0.00,0.00
2017-06-25 01:10:00,0,41130,0,0.00,0,0,0,0,23775,50000,8040,41483,0,0,0,0,0.00,0.00,0.00,0.00
2017-06-25 01:20:00,0,41706,0,0.00,0,0,0,0,25677,50000,9005,45490,0,0,0,0,0.00,0.00,0.00,0.00
2017-06-25 01:30:00,0,38592,0,0.00,0,0,0,0,20021,50000,9635,41642,0,0,0,0,0.00,0.00,0.00,0.00
2017-06-25 01:40:00,0,39650,0,0.00,0,0,0,0,28507,50000,6456,39380,0,0,0,0,0.00,0.00,0.00,0.00
2017-06-25 01:50:00,0,45451,0,0.00,0,0,0,0,31388,50000,6939,48652,0,0,0,0,0.00,0.00,0.00,0.00
2017-06-25 02:00:00,0,47565,0,0.00,0,0,0,0,37528,50000,3676,49186,0,0,0,0,0.00,0.00,0.00,0.00
2017-06-25 02:10:00,0,48293,0,0.00,0,0,0,0,38968,50000,3208,49564,0,0,0,0,0.00,0.00,0.00,0.00
2017-06-25 02:20:00,0,49926,0,0.00,0,0,0,0,49260,50000,222,50000,0,0,0,0,0.00,0.00,0.00,0.00
2017-06-25 02:30:00,0,47923,0,0.00,0,0,0,0,39247,50000,3429,50000,0,0,0,0,0.00,0.00,0.00,0.00
2017-06-25 02:40:00,0,46564,0,0.00,0,0,0,0,39316,50000,3698,47727,0,0,0,0,0.00,0.00,0.00,0.00
2017-06-25 02:50:00,0,43072,0,0.00,0,0,0,0,26263,50000,8742,48368,0,0,0,0,0.00,0.00,0.00,0.00
2017-06-25 03:00:00,0,43132,0,0.00,0,0,0,0,27162,50000,8314,47170,0,0,0,0,0.00,0.00,0.00,0.00
2017-06-25 03:10:00,0,43471,0,0.00,0,0,0,0,29591,50000,7451,46714,0,0,0,0,0.00,0.00,0.00,0.00
2017-06-25 03:20:00,0,41065,0,0.00,0,0,0,0,26106,50000,8188,42321,0,0,0,0,0.00,0.00,0.00,0.00
2017-06-25 03:30:00,0,42772,0,0.00,0,0,0,0,35454,50000,4429,42970,0,0,0,0,0.00,0.00,0.00,0.00
2017-06-25 03:40:00,0,45655,0,0.00,0,0,0,0,32374,50000,5101,46793,0,0,0,0,0.00,0.00,0.00,0.00
2017-06-25 03:50:00,0,49438,0,0.00,0,0,0,0,47560,50000,860,50000,0,0,0,0,0.00,0.00,0.00,0.00
2017-06-25 04:00:00,0,47971,0,0.00,0,0,0,0,36758,50000,3998,50000,0,0,0,0,0.00,0.00,0.00,0.00
2017-06-25 04:10:00,0,46157,0,0.00,0,0,0,0,37334,50000,4561,48760,0,0,0,0,0.00,0.00,0.00,0.00
2017-06-25 04:20:00,0,45222,0,0.00,0,0,0,0,39100,50000,4138,45148,0,0,0,0,0.00,0.00,0.00,0.00
2017-06-25 04:30:00,0,49686,0,0.00,0,0,0,0,48437,50000,521,50000,0,0,0,0,0.00,0.00,0.00,0.00
2017-06-25 04:40:00,0,42064,0,0.00,0,0,0,0,29186,50000,6833,44478,0,0,0,0,0.00,0.00,0.00,0.00
2017-06-25 04:50:00,0,43508,0,0.00,0,0,0,0,34610,50000,6247,46156,0,0,0,0,0.00,0.00,0.00,0.00
2017-06-25 05:00:00,0,44097,0,0.00,0,0,0,0,36924,50000,5134,44257,0,0,0,0,0.00,0.00,0.00,0.00
2017-06-25 05:10:00,0,48002,0,0.00,0,0,0,0,42487,50000,2954,50000,0,0,0,0,0.00,0.00,0.00,0.00
2017-06-25 05:20:00,0,47492,0,0.00,0,0,0,0,41370,50000,3500,49688,0,0,0,0,0.00,0.00,0.00,0.00
2017-06-25 05:30:00,0,45274,0,0.00,0,0,0,0,38561,50000,3963,46677,0,0,0,0,0.00,0.00,0.00,0.00
2017-06-25 05:40:00,0,48502,0,0.00,0,0,0,0,43973,50000,1896,49258,0,0,0,0,0.00,0.00,0.00,0.00
2017-06-25 05:50:00,0,48114,0,0.00,0,0,0,0,44521,50000,2091,48806,0,0,0,0,0.00,0.00,0.00,0.00
2017-06-25 06:00:00,0,44907,0,0.00,0,0,0,0,37512,50000,3479,44645,0,0,0,0,0.00,0.00,0.00,0.00
2017-06-25 06:10:00,0,43237,0,0.00,0,0,0,0,38441,46556,2767,43280,0,0,0,0,0.00,0.00,0.00,0.00
2017-06-25 06:20:00,0,47058,0,0.00,0,0,0,0,34953,50000,4896,50000,0,0,0,0,0.00,0.00,0.00,0.00
2017-06-25 06:30:00,0,46796,0,0.00,0,0,0,0,37011,50000,4381,48756,0,0,0,0,0.00,0.00,0.00,0.00
2017-06-25 06:40:00,0,40717,0,0.00,0,0,0,0,30856,47833,5123,41101,0,0,0,0,0.00,0.00,0.00,0.00
2017-06-25 06:50:00,0,45999,0,0.00,0,0,0,0,38860,50000,3778,47168,0,0,0,0,0.00,0.00,0.00,0.00
2017-06-25 07:00:00,0,46934,0,0.00,0,0,0,0,40544,50000,3465,48318,0,0,0,0,0.00,0.00,0.00,0.00
2017-06-25 07:10:00,0,45633,0,0.00,0,0,0,0,36297,50000,4547,46634,0,0,0,0,0.00,0.00,0.00,0.00
2017-06-25 07:20:00,0,44477,0,0.00,0,0,0,0,34285,50000,5221,46122,0,0,0,0,0.00,0.00,0.00,0.00
2017-06-25 07:30:00,0,44631,0,0.00,0,0,0,0,37584,50000,4891,46186,0,0,0,0,0.00,0.00,0.00,0.00
2017-06-25 07:40:00,0,44752,0,0.00,0,0,0,0,36572,50000,4615,45407,0,0,0,0,0.00,0.00,0.00,0.00
2017-06-25 07:50:00,0,46688,0,0.00,0,0,0,0,44027,50000,2099,45989,0,0,0,0,0.00,0.00,0.00,0.00
2017-06-25 08:00:00,0,47282,0,0.00,0,0,0,0,36160,50000,4541,50000,0,0,0,0,0.00,0.00,0.00,0.00
2017-06-25 08:10:00,0,45244,0,0.00,0,0,0,0,36704,50000,4287,46032,0,0,0,0,0.00,0.00,0.00,0.00
2017-06-25 08:20:00,0,46855,0,0.00,0,0,0,0,42735,50000,2825,47940,0,0,0,0,0.00,0.00,0.00,0.00
2017-06-25 08:30:00,0,48202,0,0.00,0,0,0,0,40160,50000,3477,50000,0,0,0,0,0.00,0.00,0.00,0.00
2017-06-25 08:40:00,0,46009,0,0.00,0,0,0,0,34900,50000,5716,49668,0,0,0,0,0.00,0.00,0.00,0.00
2017-06-25 08:50:00,0,47733,0,0.00,0,0,0,0,43775,50000,2684,49592,0,0,0,0,0.00,0.00,0.00,0.00
2017-06-25 09:00:00,0,49165,0,0.00,0,0,0,0,44816,50000,1730,50000,0,0,0,0,0.00,0.00,0.00,0.00
2017-06-25 09:10:00,0,49094,0,0.00,0,0,0,0,46385,50000,1420,50000,0,0,0,0,0.00,0.00,0.00,0.00
2017-06-25 09:20:00,0,45601,0,0.00,0,0,0,0,33416,50000,5705,49579,0,0,0,0,0.00,0.00,0.00,0.00
2017-06-25 09:30:00,0,37526,0,0.00,0,0,0,0,25759,48028,8024,37950,0,0,0,0,0.00,0.00,0.00,0.00
2017-06-25 09:40:00,0,44541,0,0.00,0,0,0,0,35429,50000,4177,45742,0,0,0,0,0.00,0.00,0.00,0.00
2017-06-25 09:50:00,0,46533,0,0.00,0,0,0,0,40313,50000,3188,47586,0,0,0,0,0.00,0.00,0.00,0.00
2017-06-25 10:00:00,0,46458,0,0.00,0,0,0,0,39051,50000,3308,47332,0,0,0,0,0.00,0.00,0.00,0.00
2017-06-25 10:10:00,0,46936,0,0.00,0,0,0,0,42074,50000,2651,47452,0,0,0,0,0.00,0.00,0.00,0.00
2017-06-25 10:20:00,0,49246,0,0.00,0,0,0,0,43699,50000,1872,50000,0,0,0,0,0.00,0.00,0.00,0.00
2017-06-25 10:30:00,0,45254,0,0.00,0,0,0,0,34723,50000,4679,45717,0,0,0,0,0.00,0.00,0.00,0.00
2017-06-25 10:40:00,0,46861,0,0.00,0,0,0,0,43940,50000,2006,46622,0,0,0,0,0.00,0.00,0.00,0.00
2017-06-25 10:50:00,0,43226,0,0.00,0,0,0,0,35099,50000,4443,43001,0,0,0,0,0.00,0.00,0.00,0.00
2017-06-25 11:00:00,0,45132,0,0.00,0,0,0,0,38964,49569,3330,45125,0,0,0,0,0.00,0.00,0.00,0.00
2017-06-25 11:10:00,0,44503,0,0.00,0,0,0,0,39764,50000,3557,43770,0,0,0,0,0.00,0.00,0.00,0.00
2017-06-25 11:20:00,0,49694,0,0.00,0,0,0,0,48682,50000,498,50000,0,0,0,0,0.00,0.00,0.00,0.00
2017-06-25 11:30:00,0,48643,0,0.00,0,0,0,0,42707,50000,2432,50000,0,0,0,0,0.00,0.00,0.00,0.00
2017-06-25 11:40:00,0,48458,0,0.00,0,0,0,0,43132,50000,2200,50000,0,0,0,0,0.00,0.00,0.00,0.00
2017-06-25 11:50:00,0,48451,0,0.00,0,0,0,0,40592,50000,2881,50000,0,0,0,0,0.00,0.00,0.00,0.00
2017-06-25 12:00:00,0,49659,0,0.00,0,0,0,0,46754,50000,970,50000,0,0,0,0,0.00,0.00,0.00,0.00
2017-06-25 12:10:00,0,49749,0,0.00,0,0,0,0,47945,50000,616,50000,0,0,0,0,0.00,0.00,0.00,0.00
2017-06-25 12:20:00,0,49848,0,0.00,0,0,0,0,49223,50000,268,50000,0,0,0,0,0.00,0.00,0.00,0.00
2017-06-25 12:30:00,0,49715,0,0.00,0,0,0,0,47742,50000,681,50000,0,0,0,0,0.00,0.00,0.00,0.00
2017-06-25 12:40:00,0,49930,0,0.00,0,0,0,0,49295,50000,212,50000,0,0,0,0,0.00,0.00,0.00,0.00
2017-06-25 12:50:00,0,49882,0,0.00,0,0,0,0,48940,50000,316,50000,0,0,0,0,0.00,0.00,0.00,0.00
2017-06-25 13:00:00,0,49927,0,0.00,0,0,0,0,49546,50000,151,50000,0,0,0,0,0.00,0.00,0.00,0.00
2017-06-25 13:10:00,0,50000,0,0.00,0,0,0,0,50000,50000,0,50000,0,0,0,0,0.00,0.00,0.00,0.00
2017-06-25 13:20:00,0,50000,0,0.00,0,0,0,0,50000,50000,0,50000,0,0,0,0,0.00,0.00,0.00,0.00
2017-06-25 13:30:00,0,50000,0,0.00,0,0,0,0,50000,50000,0,50000,0,0,0,0,0.00,0.00,0.00,0.00
2017-06-25 13:40:00,0,49800,0,0.00,0,0,0,0,48002,50000,599,50000,0,0,0,0,0.00,0.00,0.00,0.00
2017-06-25 13:50:00,0,49685,0,0.00,0,0,0,0,47387,50000,782,50000,0,0,0,0,0.00,0.00,0.00,0.00
2017-06-25 14:00:00,0,50000,0,0.00,0,0,0,0,50000,50000,0,50000,0,0,0,0,0.00,0.00,0.00,0.00
2017-06-25 14:10:00,0,50000,0,0.00,0,0,0,0,50000,50000,0,50000,0,0,0,0,0.00,0.00,0.00,0.00
2017-06-25 14:20:00,0,50000,0,0.00,0,0,0,0,50000,50000,0,50000,0,0,0,0,0.00,0.00,0.00,0.00
2017-06-25 14:30:00,0,50000,0,0.00,0,0,0,0,50000,50000,0,50000,0,0,0,0,0.00,0.00,0.00,0.00
2017-06-25 14:40:00,0,50000,0,0.00,0,0,0,0,50000,50000,0,50000,0,0,0,0,0.00,0.00,0.00,0.00
2017-06-25 14:50:00,0,50000,0,0.00,0,0,0,0,50000,50000,0,50000,0,0,0,0,0.00,0.00,0.00,0.00
2017-06-25 15:00:00,0,50000,0,0.00,0,0,0,0,50000,50000,0,50000,0,0,0,0,0.00,0.00,0.00,0.00
2017-06-25 15:10:00,0,50000,0,0.00,0,0,0,0,50000,50000,0,50000,0,0,0,0,0.00,0.00,0.00,0.00
2017-06-25 15:20:00,0,49962,0,0.00,0,0,0,0,49655,50000,108,50000,0,0,0,0,0.00,0.00,0.00,0.00
2017-06-25 15:30:00,0,50000,0,0.00,0,0,0,0,50000,50000,0,50000,0,0,0,0,0.00,0.00,0.00,0.00
2017-06-25 15:40:00,0,50000,0,0.00,0,0,0,0,50000,50000,0,50000,0,0,0,0,0.00,0.00,0.00,0.00
2017-06-25 15:50:00,0,50000,0,0.00,0,0,0,0,50000,50000,0,50000,0,0,0,0,0.00,0.00,0.00,0.00
2017-06-25 16:00:00,0,50000,0,0.00,0,0,0,0,50000,50000,0,50000,0,0,0,0,0.00,0.00,0.00,0.00
2017-06-25 16:10:00,0,50000,0,0.00,0,0,0,0,50000,50000,0,50000,0,0,0,0,0.00,0.00,0.00,0.00
2017-06-25 16:20:00,0,50000,0,0.00,0,0,0,0,50000,50000,0,50000,0,0,0,0,0.00,0.00,0.00,0.00
2017-06-25 16:30:00,0,50000,0,0.00,0,0,0,0,50000,50000,0,50000,0,0,0,0,0.00,0.00,0.00,0.00
2017-06-25 16:40:00,0,50000,0,0.00,0,0,0,0,50000,50000,0,50000,0,0,0,0,0.00,0.00,0.00,0.00
2017-06-25 16:50:00,0,50000,0,0.00,0,0,0,0,50000,50000,0,50000,0,0,0,0,0.00,0.00,0.00,0.00
2017-06-25 17:00:00,0,50000,0,0.00,0,0,0,0,50000,50000,0,50000,0,0,0,0,0.00,0.00,0.00,0.00
2017-06-25 17:10:00,0,50000,0,0.00,0,0,0,0,50000,50000,0,50000,0,0,0,0,0.00,0.00,0.00,0.00
2017-06-25 17:20:00,0,50000,0,0.00,0,0,0,0,50000,50000,0,50000,0,0,0,0,0.00,0.00,0.00,0.00
2017-06-25 17:30:00,0,49526,0,0.00,0,0,0,0,46156,50000,1155,50000,0,0,0,0,0.00,0.00,0.00,0.00
2017-06-25 17:40:00,0,49276,0,0.00,0,0,0,0,46624,50000,1224,50000,0,0,0,0,0.00,0.00,0.00,0.00
2017-06-25 17:50:00,0,49403,0,0.00,0,0,0,0,47049,50000,961,50000,0,0,0,0,0.00,0.00,0.00,0.00
2017-06-25 18:00:00,0,48829,0,0.00,0,0,0,0,44718,50000,1943,50000,0,0,0,0,0.00,0.00,0.00,0.00
2017-06-25 18:10:00,0,49864,0,0.00,0,0,0,0,48644,50000,407,50000,0,0,0,0,0.00,0.00,0.00,0.00
2017-06-25 18:20:00,0,50000,0,0.00,0,0,0,0,50000,50000,0,50000,0,0,0,0,0.00,0.00,0.00,0.00
2017-06-25 18:30:00,0,49988,0,0.00,0,0,0,0,49875,50000,38,50000,0,0,0,0,0.00,0.00,0.00,0.00
2017-06-25 18:40:00,0,49827,0,0.00,0,0,0,0,49051,50000,348,50000,0,0,0,0,0.00,0.00,0.00,0.00
2017-06-25 18:50:00,0,47336,0,0.00,0,0,0,0,40483,50000,3095,48349,0,0,0,0,0.00,0.00,0.00,0.00
2017-06-25 19:00:00,0,50000,0,0.00,0,0,0,0,50000,50000,0,50000,0,0,0,0,0.00,0.00,0.00,0.00
2017-06-25 19:10:00,0,49662,0,0.00,0,0,0,0,47959,50000,644,50000,0,0,0,0,0.00,0.00,0.00,0.00
2017-06-25 19:20:00,0,49385,0,0.00,0,0,0,0,46220,50000,1233,50000,0,0,0,0,0.00,0.00,0.00,0.00
2017-06-25 19:30:00,0,47577,0,0.00,0,0,0,0,40953,50000,3725,50000,0,0,0,0,0.00,0.00,0.00,0.00
2017-06-25 19:40:00,0,49067,0,0.00,0,0,0,0,44572,50000,1785,50000,0,0,0,0,0.00,0.00,0.00,0.00
2017-06-25 19:50:00,0,49244,0,0.00,0,0,0,0,45491,50000,1451,50000,0,0,0,0,0.00,0.00,0.00,0.00
2017-06-25 20:00:00,0,47768,0,0.00,0,0,0,0,40351,50000,3098,49288,0,0,0,0,0.00,0.00,0.00,0.00
2017-06-25 20:10:00,0,48406,0,0.00,0,0,0,0,45894,50000,1432,48560,0,0,0,0,0.00,0.00,0.00,0.00
2017-06-25 20:20:00,0,48376,0,0.00,0,0,0,0,45456,50000,1602,48880,0,0,0,0,0.00,0.00,0.00,0.00
2017-06-25 20:30:00,0,45690,0,0.00,0,0,0,0,38732,50000,3696,46153,0,0,0,0,0.00,0.00,0.00,0.00
2017-06-25 20:40:00,0,47986,0,0.00,0,0,0,0,43687,50000,1973,48266,0,0,0,0,0.00,0.00,0.00,0.00
2017-06-25 20:50:00,0,43920,0,0.00,0,0,0,0,36403,50000,3984,44488,0,0,0,0,0.00,0.00,0.00,0.00
2017-06-25 21:00:00,0,47367,0,0.00,0,0,0,0,39399,50000,3918,49381,0,0,0,0,0.00,0.00,0.00,0.00
2017-06-25 21:10:00,0,46653,0,0.00,0,0,0,0,36350,50000,4081,47576,0,0,0,0,0.00,0.00,0.00,0.00
2017-06-25 21:20:00,0,42335,0,0.00,0,0,0,0,36869,50000,4241,42135,0,0,0,0,0.00,0.00,0.00,0.00
2017-06-25 21:30:00,0,45627,0,0.00,0,0,0,0,37681,50000,4229,45444,0,0,0,0,0.00,0.00,0.00,0.00
2017-06-25 21:40:00,0,42579,0,0.00,0,0,0,0,34877,50000,5054,42069,0,0,0,0,0.00,0.00,0.00,0.00
2017-06-25 21:50:00,0,45423,0,0.00,0,0,0,0,35761,50000,5286,48228,0,0,0,0,0.00,0.00,0.00,0.00
2017-06-25 22:00:00,0,42270,0,0.00,0,0,0,0,31075,50000,5365,43972,0,0,0,0,0.00,0.00,0.00,0.00
2017-06-25 22:10:00,0,45760,0,0.00,0,0,0,0,33374,50000,4995,46755,0,0,0,0,0.00,0.00,0.00,0.00
2017-06-25 22:20:00,0,38739,0,0.00,0,0,0,0,26581,48590,6767,37168,0,0,0,0,0.00,0.00,0.00,0.00
2017-06-25 22:30:00,0,37696,0,0.00,0,0,0,0,29278,45462,5144,37644,0,0,0,0,0.00,0.00,0.00,0.00
2017-06-25 22:40:00,0,42829,0,0.00,0,0,0,0,31728,50000,6112,42354,0,0,0,0,0.00,0.00,0.00,0.00
2017-06-25 22:50:00,0,38089,0,0.00,0,0,0,0,23514,46825,7876,39744,0,0,0,0,0.00,0.00,0.00,0.00
2017-06-25 23:00:00,0,40115,0,0.00,0,0,0,0,32793,49331,5196,39143,0,0,0,0,0.00,0.00,0.00,0.00
2017-06-25 23:10:00,0,32143,0,0.00,0,0,0,0,24283,44969,5380,31217,0,0,0,0,0.00,0.00,0.00,0.00
2017-06-25 23:20:00,0,36263,0,0.00,0,0,0,0,23552,45191,6774,37653,0,0,0,0,0.00,0.00,0.00,0.00
2017-06-25 23:30:00,0,41794,0,0.00,0,0,0,0,28765,50000,7193,43524,0,0,0,0,0.00,0.00,0.00,0.00
2017-06-25 23:40:00,0,43677,0,0.00,0,0,0,0,33892,50000,4764,45162,0,0,0,0,0.00,0.00,0.00,0.00
2017-06-25 23:50:00,0,44521,0,0.00,0,0,0,0,36297,50000,5150,44276,0,0,0,0,0.00,0.00,0.00,0.00
